Regional Weather Roundup
Issued by NWS

Home | Current Version | Previous Version | Text Only | Print | Product List | Glossary Off
Versions: 1 2 3 4 5 6 7 8 9 10 11 12 13 14 15 16 17 18 19 20 21 22 23 24 25 26 27 28 29 30 31 32 33 34 35 36 37 38 39 40 41 42 43 44 45 46 47 48 49 50

000
ASUS43 KBIS 180702
RWRND

NORTH DAKOTA REGIONAL WEATHER ROUNDUP
NATIONAL WEATHER SERVICE BISMARCK ND
100 AM CST SAT NOV 18 2017

NOTE: "FAIR" INDICATES FEW OR NO CLOUDS BELOW 12,000 FEET WITH NO
SIGNIFICANT WEATHER AND/OR OBSTRUCTIONS TO VISIBILITY.


NDZ001>003-009>011-017-180800-
NORTHWEST NORTH DAKOTA

CITY           SKY/WX    TMP DP  RH WIND       PRES   REMARKS
WILLISTON      PTCLDY    12   6  77 N8        29.96R WCI   0
MINOT          CLOUDY    16   8  71 W15       29.87R WCI   1
$$

NDZ018>021-031>035-040>046-180800-
SOUTHWEST NORTH DAKOTA

CITY           SKY/WX    TMP DP  RH WIND       PRES   REMARKS
BISMARCK       CLEAR     25  23  92 NE3       29.82R
DICKINSON      CLEAR     27  22  81 W14       29.82R WCI  16
GARRISON         N/A     16  12  84 N14       29.85R WCI   2
HETTINGER ARPT CLEAR     23  19  85 NW10      29.87R WCI  12
$$

NDZ004>008-012>016-024-026-027-054-180800-
NORTHEAST NORTH DAKOTA

CITY           SKY/WX    TMP DP  RH WIND       PRES   REMARKS
GRAND FORKS    CLOUDY    13  11  92 W3        29.83R
GRND FRKS AFB  CLOUDY    13   9  84 NW5       29.82R WCI   6
DEVILS LAKE    CLEAR     12   9  87 NW9       29.82R WCI   0
$$

NDZ022-023-025-028>030-036>039-047>053-180800-
SOUTHEAST NORTH DAKOTA

CITY           SKY/WX    TMP DP  RH WIND       PRES   REMARKS
FARGO          CLOUDY    21  17  84 NW9       29.83R WCI  11
JAMESTOWN      CLOUDY    17  13  84 W3        29.81R
$$





USA.gov is the U.S. government's official web portal to all federal, state and local government web resources and services.